This is the latest recevied weather packets stored in our database for station/object MB7UUE. If no packets are shown the sender has not sent any weather packets the latest 10 day(s).
| Time | Temp. | Humidity | Pressure | Rain* | Wind** | Luminosity | Snow |
|---|---|---|---|---|---|---|---|
| 1777683850 | 14.44° C | 69% | 1018.5 hPa | 0 mm | - | - | - |
| 1777682710 | 15° C | 69% | 1018.6 hPa | 0 mm | - | - | - |
| 1777681570 | 15.56° C | 69% | 1018.7 hPa | 0 mm | - | - | - |
| 1777680431 | 16.11° C | 68% | 1018.9 hPa | 0 mm | - | - | - |
| 1777679289 | 16.11° C | 67% | 1019 hPa | 0 mm | - | - | - |
| 1777678149 | 16.11° C | 72% | 1019.1 hPa | 0 mm | - | - | - |
| 1777677009 | 16.11° C | 72% | 1019.1 hPa | 0 mm | - | - | - |
| 1777675870 | 17.22° C | 71% | 1019.1 hPa | 0 mm | - | - | - |
| 1777674730 | 17.78° C | 70% | 1019.1 hPa | 0 mm | - | - | - |
| 1777673589 | 17.78° C | 69% | 1019 hPa | 0 mm | - | - | - |
| 1777672449 | 17.78° C | 67% | 1019 hPa | 0 mm | - | - | - |
| 1777671310 | 17.78° C | 66% | 1019 hPa | 0 mm | - | - | - |
| 1777670169 | 18.33° C | 66% | 1019.1 hPa | 0 mm | - | - | - |
| 1777669030 | 18.33° C | 65% | 1019.1 hPa | 0 mm | - | - | - |
| 1777667889 | 18.33° C | 64% | 1019 hPa | 0 mm | - | - | - |
| 1777666750 | 18.89° C | 64% | 1019 hPa | 0 mm | - | - | - |
| 1777665609 | 18.89° C | 62% | 1018.8 hPa | 0 mm | - | - | - |
| 1777664470 | 19.44° C | 61% | 1018.5 hPa | 0 mm | - | - | - |
| 1777663328 | 20° C | 60% | 1018.4 hPa | 0 mm | - | - | - |
| 1777662190 | 20° C | 59% | 1018.4 hPa | 0 mm | - | - | - |
| 1777661049 | 20.56° C | 58% | 1018.4 hPa | 0 mm | - | - | - |
| 1777659909 | 21.11° C | 57% | 1018.3 hPa | 0 mm | - | - | - |
| 1777658769 | 21.11° C | 56% | 1018.3 hPa | 0 mm | - | - | - |
| 1777657630 | 21.67° C | 55% | 1018.2 hPa | 0 mm | - | - | - |
| 1777656489 | 22.22° C | 54% | 1018.1 hPa | 0 mm | - | - | - |
* Rain latest hour (hover to see other rain measurements)
** Current wind speed in m/s (hover to see current wind gust speed)